Location: Buckeye Ditch
(40.9104°N, 122.9517°W)
Time: 19:00:44
(UTC+00:00)

Transit 2A Rocket - Visible Passes

Search period start: 19 May 2025 00:00
Search period end: 29 May 2025 00:00
Orbit: 591 x 895 km, 66.7° (Epoch: 18 May)

Date Brightness Start Highest point End Pass type
(mag) Time Alt. Az. Time Alt. Az. Time Alt. Az.
19 May 5.3 03:59:28 10° NNW 04:03:56 46° ENE 04:08:43 10° SE visible
19 May 6.8 05:42:32 10° WNW 05:46:01 20° WSW 05:48:36 14° SSW visible
20 May 5.9 04:56:42 10° NW 05:01:03 39° WSW 05:05:02 14° S visible
21 May 4.9 04:11:20 10° NNW 04:16:00 75° WSW 04:21:03 10° SSE visible
22 May 7.2 05:09:51 10° WNW 05:12:51 17° WSW 05:15:58 10° SSW visible
23 May 6.4 04:23:44 10° NW 04:27:55 31° WSW 04:32:23 10° S visible
25 May 7.5 04:37:23 10° W 04:39:38 13° WSW 04:41:58 10° SW visible
28 May 7.9 04:05:41 10° W 04:06:24 10° WSW 04:07:07 10° WSW visible
